TimeEDT,TemperatureF,Dew PointF,Humidity,Sea Level PressureIn,VisibilityMPH,Wind Direction,Wind SpeedMPH,Gust SpeedMPH,PrecipitationIn,Events,Conditions,WindDirDegrees,DateUTC
12:15 AM,68.0,60.8,78,30.00,10.0,Calm,Calm,-,N/A,,Overcast,0,2013-10-08 04:15:00
12:35 AM,68.0,60.8,78,30.00,10.0,Calm,Calm,-,N/A,,Overcast,0,2013-10-08 04:35:00
12:55 AM,66.2,60.8,83,30.00,10.0,Calm,Calm,-,N/A,,Overcast,0,2013-10-08 04:55:00
1:15 AM,68.0,60.8,78,30.00,10.0,Calm,Calm,-,N/A,,Overcast,0,2013-10-08 05:15:00
1:35 AM,68.0,60.8,78,30.01,10.0,North,8.1,-,N/A,,Overcast,360,2013-10-08 05:35:00
1:55 AM,68.0,60.8,78,30.02,10.0,NE,8.1,-,N/A,,Overcast,40,2013-10-08 05:55:00
2:15 AM,64.4,57.2,77,30.04,10.0,NE,12.7,17.3,N/A,,Overcast,50,2013-10-08 06:15:00
2:35 AM,64.4,55.4,73,30.05,10.0,NE,10.4,-,N/A,,Overcast,40,2013-10-08 06:35:00
2:55 AM,64.4,57.2,77,30.06,10.0,NNE,5.8,-,N/A,,Overcast,20,2013-10-08 06:55:00
3:15 AM,62.6,50.0,63,30.06,10.0,North,10.4,18.4,N/A,,Overcast,10,2013-10-08 07:15:00
3:35 AM,62.6,50.0,63,30.08,7.0,North,6.9,-,N/A,,Overcast,10,2013-10-08 07:35:00
3:55 AM,62.6,48.2,59,30.07,10.0,NNE,10.4,16.1,N/A,,Overcast,20,2013-10-08 07:55:00
4:15 AM,62.6,48.2,59,30.08,10.0,North,11.5,18.4,N/A,,Overcast,10,2013-10-08 08:15:00
4:35 AM,62.6,46.4,55,30.07,10.0,NNE,11.5,17.3,N/A,,Overcast,20,2013-10-08 08:35:00
4:55 AM,62.6,46.4,55,30.08,2.5,NNE,9.2,16.1,N/A,,Haze,30,2013-10-08 08:55:00
5:15 AM,62.6,46.4,55,30.09,2.0,NNE,10.4,-,N/A,,Haze,20,2013-10-08 09:15:00
5:35 AM,62.6,44.6,52,30.09,4.0,NNE,12.7,17.3,N/A,,Haze,20,2013-10-08 09:35:00
5:55 AM,62.6,44.6,52,30.10,3.0,NNE,11.5,-,N/A,,Haze,20,2013-10-08 09:55:00
6:15 AM,62.6,44.6,52,30.10,5.0,North,10.4,16.1,N/A,,Haze,10,2013-10-08 10:15:00
6:35 AM,62.6,44.6,52,30.11,4.0,NNE,10.4,17.3,N/A,,Haze,20,2013-10-08 10:35:00
6:55 AM,62.6,44.6,52,30.13,3.0,North,10.4,-,N/A,,Haze,10,2013-10-08 10:55:00
7:15 AM,62.6,44.6,52,30.13,5.0,North,11.5,16.1,N/A,,Haze,10,2013-10-08 11:15:00
7:35 AM,62.6,44.6,52,30.14,10.0,NNE,9.2,-,N/A,,Overcast,20,2013-10-08 11:35:00
7:55 AM,62.6,44.6,52,30.15,2.5,NNE,9.2,16.1,N/A,,Haze,20,2013-10-08 11:55:00
8:15 AM,62.6,44.6,52,30.15,1.5,NNE,12.7,18.4,N/A,,Haze,20,2013-10-08 12:15:00
8:35 AM,62.6,44.6,52,30.16,10.0,North,10.4,17.3,N/A,,Overcast,10,2013-10-08 12:35:00
8:55 AM,62.6,44.6,52,30.17,10.0,NNE,11.5,-,N/A,,Overcast,20,2013-10-08 12:55:00
9:15 AM,62.6,44.6,52,30.17,10.0,NNE,13.8,18.4,N/A,,Overcast,20,2013-10-08 13:15:00
9:35 AM,62.6,44.6,52,30.18,10.0,NNE,9.2,17.3,N/A,,Overcast,20,2013-10-08 13:35:00
9:55 AM,62.6,46.4,55,30.18,10.0,NNE,8.1,18.4,N/A,,Overcast,20,2013-10-08 13:55:00
10:15 AM,62.6,46.4,55,30.19,10.0,North,9.2,-,N/A,,Overcast,10,2013-10-08 14:15:00
10:35 AM,62.6,46.4,55,30.19,10.0,North,8.1,16.1,N/A,,Overcast,10,2013-10-08 14:35:00
10:55 AM,62.6,46.4,55,30.19,10.0,North,10.4,-,N/A,,Overcast,10,2013-10-08 14:55:00
11:15 AM,62.6,46.4,55,30.20,5.0,North,11.5,18.4,N/A,,Haze,10,2013-10-08 15:15:00
11:35 AM,62.6,46.4,55,30.20,4.0,NNE,9.2,-,N/A,,Haze,20,2013-10-08 15:35:00
11:55 AM,62.6,48.2,59,30.20,2.0,NNE,11.5,-,N/A,,Haze,20,2013-10-08 15:55:00
12:15 PM,62.6,48.2,59,30.19,1.5,NNE,11.5,17.3,N/A,,Haze,20,2013-10-08 16:15:00
12:35 PM,64.4,48.2,56,30.19,3.0,NNE,10.4,19.6,N/A,,Haze,30,2013-10-08 16:35:00
12:55 PM,64.4,48.2,56,30.20,3.0,NNE,10.4,19.6,N/A,,Haze,20,2013-10-08 16:55:00
1:15 PM,64.4,50.0,59,30.19,10.0,NE,12.7,17.3,N/A,,Overcast,40,2013-10-08 17:15:00
1:35 PM,64.4,50.0,59,30.19,10.0,NNE,6.9,16.1,N/A,,Overcast,20,2013-10-08 17:35:00
1:55 PM,62.6,50.0,63,30.17,10.0,North,11.5,16.1,N/A,,Overcast,10,2013-10-08 17:55:00
2:15 PM,64.4,50.0,59,30.17,10.0,NNE,5.8,-,N/A,,Overcast,20,2013-10-08 18:15:00
2:35 PM,64.4,50.0,59,30.17,3.0,NE,12.7,16.1,N/A,,Haze,40,2013-10-08 18:35:00
2:55 PM,62.6,50.0,63,30.17,5.0,NNE,9.2,-,N/A,,Haze,30,2013-10-08 18:55:00
3:15 PM,62.6,50.0,63,30.17,3.0,North,9.2,-,N/A,,Haze,10,2013-10-08 19:15:00
3:35 PM,62.6,50.0,63,30.17,7.0,North,11.5,17.3,N/A,,Overcast,10,2013-10-08 19:35:00
3:55 PM,62.6,50.0,63,30.18,1.8,North,6.9,-,N/A,,Haze,10,2013-10-08 19:55:00
4:15 PM,62.6,50.0,63,30.18,3.0,North,10.4,16.1,N/A,,Haze,10,2013-10-08 20:15:00
4:35 PM,62.6,50.0,63,30.19,5.0,North,9.2,-,N/A,,Haze,10,2013-10-08 20:35:00
4:55 PM,62.6,50.0,63,30.18,1.8,North,8.1,17.3,N/A,,Haze,10,2013-10-08 20:55:00
5:15 PM,62.6,50.0,63,30.19,5.0,NNE,8.1,-,N/A,,Drizzle,20,2013-10-08 21:15:00
5:35 PM,60.8,51.8,72,30.19,7.0,North,6.9,-,N/A,,Overcast,10,2013-10-08 21:35:00
5:55 PM,60.8,51.8,72,30.19,4.0,North,6.9,-,N/A,Rain,Rain,360,2013-10-08 21:55:00
6:15 PM,60.8,51.8,72,30.19,10.0,North,5.8,-,N/A,,Overcast,360,2013-10-08 22:15:00
6:35 PM,60.8,51.8,72,30.20,10.0,North,5.8,-,N/A,,Overcast,360,2013-10-08 22:35:00
6:55 PM,60.8,51.8,72,30.20,10.0,North,6.9,-,N/A,,Overcast,10,2013-10-08 22:55:00
7:15 PM,60.8,50.0,68,30.20,10.0,North,5.8,-,N/A,,Overcast,10,2013-10-08 23:15:00
7:35 PM,60.8,50.0,68,30.20,10.0,North,9.2,16.1,N/A,,Overcast,10,2013-10-08 23:35:00
7:55 PM,60.8,50.0,68,30.20,10.0,North,9.2,-,N/A,,Overcast,10,2013-10-08 23:55:00
8:15 PM,60.8,50.0,68,30.20,10.0,North,8.1,-,N/A,,Overcast,360,2013-10-09 00:15:00
8:35 PM,60.8,50.0,68,30.20,10.0,North,6.9,-,N/A,,Overcast,350,2013-10-09 00:35:00
8:55 PM,60.8,50.0,68,30.20,10.0,North,6.9,-,N/A,,Overcast,10,2013-10-09 00:55:00
9:15 PM,60.8,50.0,68,30.20,10.0,North,8.1,-,N/A,,Overcast,10,2013-10-09 01:15:00
9:35 PM,60.8,50.0,68,30.21,10.0,North,6.9,-,N/A,,Overcast,360,2013-10-09 01:35:00
9:55 PM,60.8,50.0,68,30.21,10.0,North,9.2,-,N/A,,Overcast,360,2013-10-09 01:55:00
10:15 PM,60.8,50.0,68,30.21,10.0,North,8.1,-,N/A,,Overcast,360,2013-10-09 02:15:00
10:35 PM,60.8,50.0,68,30.21,10.0,North,8.1,-,N/A,,Overcast,360,2013-10-09 02:35:00
10:55 PM,60.8,50.0,68,30.21,10.0,North,6.9,16.1,N/A,,Overcast,360,2013-10-09 02:55:00
11:15 PM,60.8,50.0,68,30.21,10.0,North,8.1,-,N/A,,Overcast,10,2013-10-09 03:15:00
11:35 PM,60.8,50.0,68,30.20,10.0,North,9.2,-,N/A,,Overcast,10,2013-10-09 03:35:00
11:55 PM,60.8,50.0,68,30.20,10.0,North,9.2,17.3,N/A,,Overcast,10,2013-10-09 03:55:00